KD9ZDW Weather Reports


time (UTC)temp
F
wind
direction
speed
knots
gust
knots
rain 1hr
in
rain 24hr
in
rain mn
in
humidity
%
barometer
mb
20260504215246 76 250 10.4 17.4 0.00 0.00 0.00 42 1004.3
20260504214741 76 233 9.6 13.0 0.00 0.00 0.00 42 1003.9
20260504214238 76 271 11.3 17.4 0.00 0.00 0.00 42 1004.3
20260504213735 76 183 7.0 15.6 0.00 0.00 0.00 42 1004.1
20260504213231 77 264 7.8 12.2 0.00 0.00 0.00 42 1004.1
20260504212729 77 328 9.6 19.1 0.00 0.00 0.00 42 1004.1
20260504212225 75 171 4.3 7.0 0.00 0.00 0.00 45 1004.1
20260504211723 77 257 11.3 13.9 0.00 0.00 0.00 42 1004.3
20260504211219 77 223 2.6 12.2 0.00 0.00 0.00 42 1004.1
20260504210716 77 306 7.8 17.4 0.00 0.00 0.00 41 1004.2
20260504210213 76 220 3.5 7.8 0.00 0.00 0.00 42 1004.1
20260504205710 76 194 2.6 7.0 0.00 0.00 0.00 43 1004.1
20260504205208 76 227 7.0 13.9 0.00 0.00 0.00 43 1004.3
20260504204706 76 254 7.0 20.9 0.00 0.00 0.00 43 1004.2
20260504204204 76 246 4.3 14.8 0.00 0.00 0.00 43 1004.1
20260504203703 77 245 2.6 9.6 0.00 0.00 0.00 42 1003.9
20260504203200 77 231 12.2 18.2 0.00 0.00 0.00 43 1004.2
20260504202700 76 259 7.8 14.8 0.00 0.00 0.00 43 1004.2
20260504202158 77 230 7.0 18.2 0.00 0.00 0.00 43 1004.2
20260504201654 77 221 6.1 12.2 0.00 0.00 0.00 43 1004.2
20260504201152 77 219 7.0 11.3 0.00 0.00 0.00 44 1004.4
20260504200649 77 184 10.4 13.9 0.00 0.00 0.00 43 1004.4
20260504200145 77 191 7.0 13.9 0.00 0.00 0.00 43 1004.4
20260504195641 77 226 7.8 8.7 0.00 0.00 0.00 42 1004.8
20260504195138 76 242 4.3 7.8 0.00 0.00 0.00 45 1004.8
20260504194635 75 257 10.4 14.8 0.00 0.00 0.00 45 1004.8
20260504194131 76 11 7.8 19.1 0.00 0.00 0.00 44 1005.1
20260504193627 76 326 12.2 23.5 0.00 0.00 0.00 43 1005.0
20260504193126 78 281 12.2 15.6 0.00 0.00 0.00 40 1004.9
20260504192623 76 291 3.5 5.2 0.00 0.00 0.00 47 1005.1
20260504192121 76 246 9.6 17.4 0.00 0.00 0.00 43 1004.9
20260504191619 76 7 4.3 11.3 0.00 0.00 0.00 46 1005.0
20260504191115 75 236 6.1 11.3 0.00 0.00 0.00 46 1004.9
20260504190611 76 238 3.5 9.6 0.00 0.00 0.00 46 1004.9
20260504190108 75 171 6.1 7.8 0.00 0.00 0.00 48 1005.3
20260504185604 75 186 4.3 9.6 0.00 0.00 0.00 46 1005.0
20260504185101 76 274 4.3 11.3 0.00 0.00 0.00 48 1005.1
20260504184557 76 228 3.5 6.1 0.00 0.00 0.00 48 1005.1
20260504184052 76 72 4.3 7.0 0.00 0.00 0.00 47 1005.2
20260504183549 74 279 3.5 9.6 0.00 0.00 0.00 46 1005.5
20260504183047 75 224 4.3 12.2 0.00 0.00 0.00 47 1005.3
20260504182544 75 224 4.3 11.3 0.00 0.00 0.00 47 1005.3
20260504182042 75 273 6.1 9.6 0.00 0.00 0.00 47 1005.4
20260504181538 75 126 7.8 14.8 0.00 0.00 0.00 46 1005.3
20260504181037 74 217 7.0 9.6 0.00 0.00 0.00 48 1005.3
20260504180535 74 230 5.2 8.7 0.00 0.00 0.00 49 1005.5
20260504180034 74 240 5.2 8.7 0.00 0.00 0.00 49 1005.6
20260504175531 73 250 3.5 12.2 0.00 0.00 0.00 51 1005.5
20260504175028 73 160 11.3 17.4 0.00 0.00 0.00 50 1005.4
20260504174526 74 289 7.8 11.3 0.00 0.00 0.00 52 1005.9
20260504174022 73 212 4.3 8.7 0.00 0.00 0.00 51 1005.8
20260504173519 72 270 4.3 8.7 0.00 0.00 0.00 52 1005.9
20260504173016 72 269 9.6 11.3 0.00 0.00 0.00 51 1005.8
20260504172512 73 249 4.3 6.1 0.00 0.00 0.00 51 1006.1
20260504172009 72 228 1.7 6.1 0.00 0.00 0.00 52 1006.2
20260504171506 72 286 12.2 18.2 0.00 0.00 0.00 50 1006.2
20260504171003 71 227 5.2 12.2 0.00 0.00 0.00 53 1006.5
20260504170459 71 236 2.6 7.0 0.00 0.00 0.00 55 1006.5
20260504160419 68 229 0.9 2.6 0.00 0.00 0.00 58 1007.5
20260504150843 64 260 7.8 8.7 0.00 0.00 0.00 58 1007.6
20260504150339 63 228 2.6 6.1 0.00 0.00 0.00 58 1007.8
20260504141309 60 285 2.6 5.2 0.00 0.00 0.00 66 1008.2
20260504140806 61 234 2.6 2.6 0.00 0.00 0.00 64 1008.2
20260504140302 60 229 1.7 4.3 0.00 0.00 0.00 65 1008.3
20260504130730 56 232 1.7 5.2 0.00 0.00 0.00 69 1008.4
20260504130226 56 242 4.3 5.2 0.00 0.00 0.00 68 1008.5
20260504120150 53 227 2.6 2.6 0.00 0.00 0.00 72 1008.7
20260504110618 50 227 1.7 1.7 0.00 0.00 0.00 78 1008.7
20260504110114 49 263 0.0 1.7 0.00 0.00 0.00 77 1008.6
20260504100539 49 207 1.7 1.7 0.00 0.00 0.00 78 1008.7
20260504081933 44 274 0.0 0.9 0.00 0.00 0.00 90 1009.0
20260504081430 43 290 0.0 0.9 0.00 0.00 0.00 90 1009.4
20260504080926 43 301 0.9 0.9 0.00 0.00 0.00 90 1009.2
20260504080423 43 273 0.0 0.0 0.00 0.00 0.00 90 1009.2
20260504070350 43 260 0.0 0.0 0.00 0.00 0.00 91 1010.0
20260504050738 46 255 0.0 0.0 0.00 0.00 0.00 82 1011.1
20260504050235 47 256 0.0 0.0 0.00 0.00 0.00 81 1011.1
20260504045732 47 264 0.0 0.0 0.00 0.00 0.00 80 1011.1
20260504045227 48 243 0.0 0.9 0.00 0.00 0.00 79 1011.1
20260504044725 48 226 0.9 0.9 0.00 0.00 0.00 79 1011.2
20260504044222 48 233 0.9 0.9 0.00 0.00 0.00 79 1011.3
20260504043719 48 234 0.9 0.9 0.00 0.00 0.00 79 1011.2
20260504043216 48 222 0.9 1.7 0.00 0.00 0.00 79 1011.4
20260504042714 48 252 0.9 0.9 0.00 0.00 0.00 79 1011.4
20260504042210 48 228 0.9 0.9 0.00 0.00 0.00 80 1011.4
20260504041706 48 260 0.0 0.9 0.00 0.00 0.00 79 1011.5
20260504041202 48 247 1.7 1.7 0.00 0.00 0.00 79 1011.5
20260504040659 48 243 0.9 0.9 0.00 0.00 0.00 79 1011.6
20260504040156 48 255 0.0 0.9 0.00 0.00 0.00 79 1011.4
20260504035652 48 236 0.0 0.9 0.00 0.00 0.00 79 1011.5
20260504035150 48 244 0.9 0.9 0.00 0.00 0.00 79 1011.5
20260504034647 48 251 0.0 0.9 0.00 0.00 0.00 79 1011.7
20260504034144 48 238 0.9 0.9 0.00 0.00 0.00 79 1011.7
20260504033642 48 230 0.9 0.9 0.00 0.00 0.00 79 1011.7
20260504033139 48 231 0.9 1.7 0.00 0.00 0.00 79 1012.0
20260504032635 48 213 0.9 0.9 0.00 0.00 0.00 79 1011.8
20260504032132 48 230 0.9 0.9 0.00 0.00 0.00 79 1011.9
20260504031630 48 246 0.9 1.7 0.00 0.00 0.00 79 1012.0
20260504031126 48 236 0.9 0.9 0.00 0.00 0.00 79 1012.2
20260504030623 48 229 0.9 0.9 0.00 0.00 0.00 80 1012.1
20260504030119 48 229 0.9 1.7 0.00 0.00 0.00 80 1012.1
20260504025616 48 228 0.9 1.7 0.00 0.00 0.00 80 1012.2
20260504025113 48 226 0.9 0.9 0.00 0.00 0.00 80 1012.2
20260504024611 48 215 0.9 1.7 0.00 0.00 0.00 80 1012.3
20260504024107 48 211 0.9 1.7 0.00 0.00 0.00 80 1012.3
20260504023603 48 198 0.9 1.7 0.00 0.00 0.00 80 1012.4
20260504023059 48 200 0.9 1.7 0.00 0.00 0.00 80 1012.4
20260504022556 48 233 0.9 0.9 0.00 0.00 0.00 81 1012.4
20260504022052 48 228 0.9 0.9 0.00 0.00 0.00 80 1012.4
20260504021549 48 247 1.7 1.7 0.00 0.00 0.00 80 1012.2
20260504021046 48 236 0.9 1.7 0.00 0.00 0.00 79 1012.3
20260504020543 49 220 0.9 1.7 0.00 0.00 0.00 79 1012.4
20260504020040 49 263 0.9 1.7 0.00 0.00 0.00 79 1012.4
20260504015536 49 252 2.6 2.6 0.00 0.00 0.00 79 1012.4
20260504015032 49 212 1.7 2.6 0.00 0.00 0.00 79 1012.3
20260504014528 49 244 0.9 2.6 0.00 0.00 0.00 78 1012.3
20260504014026 49 285 0.0 2.6 0.00 0.00 0.00 78 1012.2
20260504013524 49 249 0.9 4.3 0.00 0.00 0.00 78 1012.4
20260504013020 50 256 1.7 2.6 0.00 0.00 0.00 77 1012.4
20260504012518 50 230 1.7 4.3 0.00 0.00 0.00 77 1012.5
20260504012016 50 166 1.7 4.3 0.00 0.00 0.00 77 1012.4
20260504011512 50 229 1.7 2.6 0.00 0.00 0.00 76 1012.5
20260504011008 50 255 0.9 4.3 0.00 0.00 0.00 76 1012.4
20260504010504 50 219 0.9 2.6 0.00 0.00 0.00 76 1012.4
20260504010000 50 243 0.9 2.6 0.00 0.00 0.00 76 1012.5
20260504005456 50 230 0.0 0.9 0.00 0.00 0.00 77 1012.4
20260504004954 50 179 1.7 4.3 0.00 0.00 0.00 77 1012.6
20260504004452 50 188 0.9 1.7 0.00 0.00 0.00 77 1012.5
20260504003949 50 218 0.9 2.6 0.00 0.00 0.00 77 1012.7
20260504003445 50 226 1.7 5.2 0.00 0.00 0.00 77 1012.6
20260504002942 50 211 1.7 2.6 0.00 0.00 0.00 77 1012.8
20260504002439 50 228 2.6 2.6 0.00 0.00 0.00 77 1012.9
20260504001936 50 157 2.6 4.3 0.00 0.00 0.00 78 1012.8
20260504001433 50 184 1.7 2.6 0.00 0.00 0.00 78 1012.8
20260504000930 50 247 1.7 2.6 0.00 0.00 0.00 78 1012.8
20260504000427 50 244 0.0 1.7 0.00 0.00 0.00 77 1012.8
20260503235924 50 212 0.9 2.6 0.00 0.00 0.00 77 1013.0
20260503235422 50 199 2.6 2.6 0.00 0.00 0.00 77 1013.0
20260503234919 50 208 2.6 2.6 0.00 0.00 0.00 76 1013.0
20260503234417 50 190 1.7 4.3 0.00 0.00 0.00 76 1013.2
20260503233914 50 237 1.7 1.7 0.00 0.00 0.00 76 1013.0
20260503233411 50 252 0.0 2.6 0.00 0.00 0.00 76 1013.1
20260503232907 50 216 0.9 2.6 0.00 0.00 0.00 75 1013.2
20260503232405 50 231 0.9 1.7 0.00 0.00 0.00 76 1013.2
20260503231902 50 209 1.7 2.6 0.00 0.00 0.00 75 1013.3
20260503231359 50 206 0.9 4.3 0.00 0.00 0.00 75 1013.4
20260503230855 50 200 0.9 5.2 0.00 0.00 0.00 75 1013.3
20260503230352 50 250 2.6 2.6 0.00 0.00 0.00 76 1013.4
20260503225850 50 240 1.7 1.7 0.00 0.00 0.00 77 1013.5
20260503225345 50 248 1.7 2.6 0.00 0.00 0.00 76 1013.6
20260503224842 50 182 2.6 6.1 0.00 0.00 0.00 76 1013.7
20260503224339 50 218 1.7 2.6 0.00 0.00 0.00 76 1013.6
20260503223837 50 263 0.9 2.6 0.00 0.00 0.00 77 1013.5
20260503223334 50 287 0.9 2.6 0.00 0.00 0.00 77 1013.7
20260503222830 50 223 0.9 4.3 0.00 0.00 0.00 76 1013.9
20260503222329 50 247 0.9 1.7 0.00 0.00 0.00 77 1013.9
20260503221826 50 246 0.9 1.7 0.00 0.00 0.00 77 1014.1
20260503221325 50 174 1.7 2.6 0.00 0.00 0.00 77 1013.7
20260503220820 50 219 2.6 2.6 0.00 0.00 0.00 76 1013.9
20260503220318 50 239 0.0 1.7 0.00 0.00 0.00 76 1014.0
20260503215814 50 272 0.9 2.6 0.00 0.00 0.00 76 1014.0